User: anonymous   Login
Location: Freistadt
(48.5112°N, 14.5013°E)
Time: 14:59:42
(UTC+01:00)
Language:

Meteor 1-20 - Orbit

View from above orbital plane
View from above orbital plane
View from above satellite
View from above satellite

Ground track
Ground track

The orbit data is extracted from the following two-line orbital elements,

1  7574U 74099A   23334.02533904  .00000378  00000-0  20036-3 0  9995
2  7574  81.2318 148.6135 0017672  67.7657 292.5387 14.11690023519498
Epoch (UTC): 30 November 2023 00:36:29
Eccentricity: 0.0017672
inclination: 81.2318°
perigee height: 841 km
apogee height: 866 km
right ascension of ascending node: 148.6135°
argument of perigee: 67.7657°
revolutions per day: 14.11690023
mean anomaly at epoch: 292.5387°
orbit number at epoch: 51949

The dashed part of the orbit path shows where the satellite is in the earth's shadow,  

DLR